Jaipur, India

9:59 AM IST on August 26, 2016 (GMT +0530)
Jaipur

Weather History for 42348 - December, 2013

Change the Weather History Date:

Sunday, December 8, 2013

  Actual Average Record
Temperature  
Mean Temperature 68 °F -  
Max Temperature 83 °F - - ()
Min Temperature 52 °F - - ()
Cooling Degree Days 2    
Growing Degree Days 18 (Base 50)    
Moisture  
Dew Point 46 °F    
Average Humidity 49    
Maximum Humidity 67    
Minimum Humidity 17    
Precipitation  
Precipitation 0.00 in - - ()
Sea Level Pressure  
Sea Level Pressure 29.96 in    
Wind  
Wind Speed 1 mph ()    
Max Wind Speed 6 mph    
Max Gust Speed -    
Visibility 1.3 miles    
Events      
T = Trace of Precipitation, MM = Missing Value Source: Averaged Metar Reports

Daily Weather History Graph

Daily Weather History Graph

Search for Another Location

Airport or City:

Trip Planner

Search our weather history database for the weather conditions in past years. The results will help you decide how hot, cold, wet, or windy it might be!

Date:

Astronomy

Dec. 08, 2013 Rise Set
Actual Time 7:03 AM IST 5:33 PM IST
Civil Twilight 6:37 AM IST 5:59 PM IST
Nautical Twilight 6:09 AM IST 6:28 PM IST
Astronomical Twilight 5:40 AM IST 6:56 PM IST
Moon 11:29 AM IST (12/8) 11:27 PM IST (12/8)
Length of Visible Light 11h 21m
Length of Day
10h 30m
Waxing Crescent, 35% of the Moon is Illuminated
Dec 8
Waxing Crescent
Dec 9
First Quarter
Dec 17
Full
Dec 25
Last Quarter
Jan 1
New

Hourly Weather History & Observations

Time (IST) Temp. Dew Point Humidity Pressure Visibility Wind Dir Wind Speed Gust Speed Precip Events Conditions
12:00 AM 57.2 °F 46.4 °F 67% 29.98 in 1.1 mi Calm Calm - N/A   Smoke
1:00 AM 57.2 °F 46.4 °F 67% 29.98 in 1.1 mi Calm Calm - N/A   Smoke
2:00 AM 55.4 °F 44.6 °F 67% 29.98 in 1.1 mi Calm Calm - N/A   Smoke
2:30 AM 58 °F 46 °F 53% 29.96 in 1 mi Calm Calm - -   Haze
2:30 AM 57.2 °F 44.6 °F 63% 29.98 in 1.6 mi Calm Calm - N/A   Smoke
5:00 AM 57.2 °F 44.6 °F 63% 29.95 in 1.6 mi Calm Calm - N/A   Smoke
5:30 AM 57 °F 45 °F 55% 29.94 in 1 mi Calm Calm - -   Smoke
6:00 AM 57.2 °F 44.6 °F 63% 29.98 in 1.6 mi Calm Calm - N/A   Smoke
7:00 AM 55.4 °F 44.6 °F 67% 29.98 in 1.2 mi Calm Calm - N/A   Smoke
8:00 AM 59.0 °F 44.6 °F 59% 30.01 in 1.2 mi Calm Calm - N/A   Smoke
8:30 AM 61 °F 49 °F 54% 29.97 in 1 mi Calm Calm - -   Smoke
9:00 AM 66.2 °F 46.4 °F 49% 30.01 in 1.2 mi East 3.5 mph - N/A   Smoke
11:00 AM 73.4 °F 44.6 °F 36% 30.04 in 1.9 mi SE 4.6 mph - N/A   Haze
11:30 AM 75 °F 46 °F 24% 29.96 in 1 mi SE 5.8 mph - -   Haze
12:00 PM 75.2 °F 42.8 °F 31% 30.01 in 1.9 mi SE 4.6 mph - N/A   Haze
1:00 PM 77.0 °F 42.8 °F 29% 29.98 in 1.9 mi SSW 4.6 mph - N/A   Haze
2:00 PM 80.6 °F 42.8 °F 26% 29.95 in 1.9 mi Variable 3.5 mph - N/A   Haze
2:30 PM 78 °F 41 °F 17% 29.87 in 1 mi South 4.6 mph - -   Haze
3:00 PM 80.6 °F 42.8 °F 26% 29.92 in 2.2 mi Variable 3.5 mph - N/A   Haze
4:00 PM 78.8 °F 42.8 °F 28% 29.92 in 2.2 mi Variable 3.5 mph - N/A   Haze
5:30 PM 76 °F 46 °F 24% 29.85 in 1 mi Calm Calm - -   Haze
6:00 PM 69.8 °F 46.4 °F 43% 29.92 in 1.4 mi Calm Calm - N/A   Haze
7:00 PM 68.0 °F 48.2 °F 49% 29.95 in 1.2 mi Calm Calm - N/A   Smoke
8:00 PM 64.4 °F 50.0 °F 59% 29.95 in 1.2 mi Calm Calm - N/A   Smoke
8:30 PM 64 °F 50 °F 50% 29.91 in 1 mi Calm Calm - -   Smoke
9:00 PM 62.6 °F 48.2 °F 59% 29.95 in 1.0 mi Calm Calm - N/A   Smoke
10:00 PM 62.6 °F 50.0 °F 63% 29.98 in 1.0 mi Variable 1.2 mph - N/A   Smoke
11:00 PM 62.6 °F 48.2 °F 59% 29.98 in 1.2 mi Calm Calm - N/A   Smoke
11:30 PM 59 °F 49 °F 60% 29.94 in 1 mi Calm Calm - -   Smoke